Regional Weather Roundup
Issued by NWS

Home | Current Version | Previous Version | Graphics & Text | Print | Product List | Glossary On
Versions: 1 2 3 4 5 6 7 8 9 10 11 12 13 14 15 16 17 18 19 20 21 22 23 24 25 26 27 28 29 30 31 32 33 34 35 36 37 38 39 40 41 42 43 44 45 46 47 48 49 50
000
ASUS45 KCYS 260610
RWRWY

WYOMING REGIONAL WEATHER ROUNDUP
NATIONAL WEATHER SERVICE CHEYENNE WY
1100 PM MST SUN JAN 25 2015

NOTE:  "FAIR" INDICATES FEW OR NO CLOUDS BELOW 12,000 FEET
WITH NO SIGNIFICANT WEATHER AND/OR OBSTRUCTIONS TO VISIBILITY.

WYZ001-260700-
YELLOWSTONE NATIONAL PARK

CITY           SKY/WX    TMP DP  RH WIND       PRES   REMARKS
LK YELLOWSTONE   N/A     26  24  92 CALM      30.47S
6HR MIN TEMP:  26; 6HR MAX TEMP:  31;

W YELLOWSTONE  NOT AVBL

$$
WYZ002>013-054>058-071-098>099-260700-
NORTHERN WYOMING

CITY           SKY/WX    TMP DP  RH WIND       PRES   REMARKS
JACKSON        MOCLDY    23  21  93 CALM      30.46R
CODY           FAIR      55  23  28 W14G20    30.19S
GREYBULL       FAIR      23  21  92 NW3       30.21R
6HR MIN TEMP:  23; 6HR MAX TEMP:  32;

WORLAND        FAIR      27  24  89 CALM      30.20R
6HR MIN TEMP:  21; 6HR MAX TEMP:  28;

SHERIDAN       FAIR      41  29  62 SW7       30.08R
6HR MIN TEMP:  39; 6HR MAX TEMP:  49;

BUFFALO        FAIR      46  27  47 S9        30.12R
6HR MIN TEMP:  43; 6HR MAX TEMP:  53;

GILLETTE       FAIR      41  29  62 W8        30.08R
6HR MIN TEMP:  38; 6HR MAX TEMP:  43;

HULETT           N/A    N/A N/A N/A MISG        N/A
NEWCASTLE      FAIR      34  30  86 CALM      30.08S

$$
WYZ014>020-022>026-101>103-260700-
CENTRAL WYOMING

CITY           SKY/WX    TMP DP  RH WIND       PRES   REMARKS
BIG PINEY      FAIR      28  23  81 NW12      30.39R WCI  18
6HR MIN TEMP:  27; 6HR MAX TEMP:  39;

PINEDALE       FAIR      32  27  80 N5        30.38R WCI  27
DUBOIS         FAIR      45  21  39 NW21      30.32R
LANDER         FAIR      39  27  62 NW3       30.22S
6HR MIN TEMP:  38; 6HR MAX TEMP:  45;

RIVERTON       FAIR      36  26  67 E3        30.24R
6HR MIN TEMP:  33; 6HR MAX TEMP:  41;

CASPER         FAIR      43  27  53 SW13      30.20R
6HR MIN TEMP:  38; 6HR MAX TEMP:  45;

DOUGLAS        FAIR      36  29  75 NW7       30.18R WCI  30
6HR MIN TEMP:  34; 6HR MAX TEMP:  47;


$$
WYZ021-027>030-104>119-260700-
SOUTHERN WYOMING

CITY           SKY/WX    TMP DP  RH WIND       PRES   REMARKS
EVANSTON       FAIR      34  28  79 N9        30.42F WCI  27
6HR MIN TEMP:  31; 6HR MAX TEMP:  44;

KEMMERER       FAIR      32  30  93 SW5       30.43R WCI  27
FORT BRIDGER   FAIR      36  29  75 W10       30.43S WCI  28
ROCK SPRINGS   FAIR      36  28  73 SW15      30.39R WCI  27
6HR MIN TEMP:  33; 6HR MAX TEMP:  44;

DIXON          FAIR      28  24  87 NE5       30.44S WCI  23
RAWLINS        FAIR      38  26  62 SW28G33   30.32S WCI  26
6HR MIN TEMP:  36; 6HR MAX TEMP:  40;

SARATOGA       FAIR      34  27  75 S7        30.38R WCI  28
LARAMIE        FAIR      31  22  69 SW5       30.28R WCI  26
6HR MIN TEMP:  28; 6HR MAX TEMP:  41;

CHEYENNE       FAIR      46  24  42 NW15      30.21R
6HR MIN TEMP:  39; 6HR MAX TEMP:  46;

TORRINGTON     FAIR      39  30  70 NW10      30.14R WCI  32
6HR MIN TEMP:  38; 6HR MAX TEMP:  50;

PINE BLUFFS    FAIR      37  30  75 W12       30.19R WCI  30

$$


USA.gov is the U.S. government's official web portal to all federal, state and local government web resources and services.